{"data":{"norad_id":42992,"epoch":"2026-09-20T04:18:54.148032Z","epoch_age_seconds":46006,"freshness":"FRESH","line1":"1 42992U 17068F   26263.17979338  .00006141  00000+0  18824-3 0  9991","line2":"2 42992  97.4701  41.7954 0002054 134.4397 225.7014 15.34155364496881","mean_motion":15.34155364,"eccentricity":0.0002054,"inclination_deg":97.4701,"raan_deg":41.7954,"arg_perigee_deg":134.4397,"mean_anomaly_deg":225.7014,"bstar":0.00018824,"rev_number":49688,"period_min":93.862723019492,"perigee_km":462.02518861917,"apogee_km":464.83570452622,"semimajor_km":6841.5674465727,"source":"CELESTRAK","updated_at":"2026-09-20T09:00:34.709243Z"}}